EDT,Max TemperatureF,Mean TemperatureF,Min TemperatureF,Max Dew PointF,MeanDew PointF,Min DewpointF,Max Humidity, Mean Humidity, Min Humidity, Max Sea Level PressureIn, Mean Sea Level PressureIn, Min Sea Level PressureIn, Max VisibilityMiles, Mean VisibilityMiles, Min VisibilityMiles, Max Wind SpeedMPH, Mean Wind SpeedMPH, Max Gust SpeedMPH,PrecipitationIn, CloudCover, Events, WindDirDegrees
2012-10-1,76,68,60,72,63,57,100,91,82,29.80,29.67,29.57,10,4,1,16,8,23,2.55,7,Rain,41
2012-10-2,75,69,62,70,64,60,100,82,64,30.00,29.77,29.63,10,8,2,14,5,18,0.05,7,Fog-Rain,186
2012-10-3,73,66,58,61,58,54,97,75,53,30.21,30.09,30.00,10,8,0,7,1,10,0.00,6,Fog,167
2012-10-4,80,68,55,63,57,54,100,71,42,30.32,30.25,30.19,10,6,0,7,0,9,0.00,3,Fog,-1
2012-10-5,81,68,55,61,57,55,100,73,45,30.23,30.16,30.01,10,5,0,9,1,13,0.00,4,Fog,263
2012-10-6,64,60,55,61,55,48,90,81,72,30.08,30.04,29.98,10,9,5,15,7,17,0.07,6,Rain,352
2012-10-7,61,55,49,47,44,40,86,66,46,30.17,30.11,30.05,10,10,2,16,7,21,0.10,7,Rain,350
2012-10-8,53,51,48,47,45,43,93,82,71,30.22,30.16,30.10,10,8,2,17,7,23,0.19,8,Rain,14
2012-10-9,63,56,48,51,48,46,89,73,56,30.18,30.13,30.05,10,10,9,8,2,12,0.00,6,,72
2012-10-10,71,59,46,54,49,44,93,75,57,30.22,30.14,30.07,10,10,8,16,3,20,0.00,4,,310
2012-10-11,71,57,43,54,46,41,100,69,37,30.32,30.25,30.23,10,10,10,10,2,12,0.00,3,,254
2012-10-12,69,64,58,63,59,55,100,89,78,30.30,30.26,30.22,10,7,2,18,2,23,0.23,8,Rain,24
2012-10-13,77,67,57,61,57,52,100,77,53,30.35,30.28,30.21,10,6,0,16,5,23,0.00,5,Fog,160
2012-10-14,74,67,60,64,59,52,87,78,68,30.22,30.12,29.95,10,10,7,17,6,22,0.05,7,,185
2012-10-15,74,63,51,65,57,42,100,68,35,29.99,29.95,29.92,10,8,0,23,5,28,1.56,5,Fog-Rain-Thunderstorm,307
2012-10-16,72,59,46,54,48,43,100,69,38,30.04,29.97,29.88,10,10,10,8,1,10,0.00,3,Fog,12
2012-10-17,75,62,49,53,49,43,100,67,33,29.95,29.87,29.74,10,10,10,17,3,23,0.00,3,Fog,176
2012-10-18,72,61,49,61,52,39,100,71,42,29.84,29.79,29.74,10,8,2,16,6,21,0.44,6,Rain-Thunderstorm,207
2012-10-19,70,57,44,44,39,28,92,57,22,29.82,29.78,29.72,10,9,6,23,6,31,0.00,3,,214
2012-10-20,68,57,45,47,44,40,93,69,45,30.02,29.92,29.83,10,10,10,12,2,15,0.00,2,,282
2012-10-21,74,59,44,53,47,43,100,68,35,30.19,30.13,30.04,10,10,10,7,0,8,0.00,2,Fog,325
2012-10-22,79,65,50,59,53,48,100,70,39,30.25,30.18,30.12,10,10,10,6,1,8,0.00,3,,202
2012-10-23,80,65,50,57,53,50,100,70,39,30.21,30.14,30.09,10,10,9,9,1,15,0.00,3,Fog,161
2012-10-24,81,66,50,58,53,50,100,70,39,30.22,30.15,30.06,10,7,0,6,1,9,0.00,3,Fog,202
2012-10-25,78,64,50,60,55,51,100,74,47,30.13,30.08,30.02,10,7,0,10,1,14,0.00,4,Fog,169
2012-10-26,81,68,55,61,58,55,100,71,42,30.09,30.01,29.91,10,10,8,12,2,15,0.00,5,,324
2012-10-27,62,57,52,55,48,45,93,80,67,30.00,29.95,29.90,10,9,7,20,11,25,0.01,8,Rain,340
2012-10-28,52,50,48,45,42,37,77,69,61,30.00,29.93,29.87,10,10,10,23,14,30,0.00,7,,350
2012-10-29,55,48,41,35,30,21,70,52,34,30.01,29.95,29.83,10,10,10,23,15,31,0.00,4,,326
2012-10-30,55,49,42,34,25,19,57,42,26,29.85,29.78,29.72,10,10,10,22,12,28,0.00,7,,297
2012-10-31,62,49,36,32,24,18,70,45,19,29.94,29.88,29.83,10,10,10,17,6,22,0.00,2,,281